• Em Portugal
  • Lista de países
  • Para 7 dias
  • Temperatura da água
  • Mapas de satélite
  • Mapa do tempo
  • Widgets de tempo
  • user-avatar
    Iniciar Sessão

    Previsão horária em Chernogryazka

    Hoje, 19 Outubro, Sexta-feira

    Tempo Temperatura Precipitação Vento Pressão Humidade
    00:00 +13°C° 0 mm 2 m/s 745 mmHg 85%
    01:00 +13°C° 0 mm 2 m/s 745 mmHg 85%
    02:00 +12°C° 0 mm 2 m/s 744 mmHg 85%
    03:00 +12°C° 0 mm 2 m/s 744 mmHg 85%
    04:00 +12°C° 0 mm 2 m/s 744 mmHg 86%
    05:00 +10°C° 0 mm 2 m/s 744 mmHg 87%
    06:00 +12°C° 0 mm 2 m/s 744 mmHg 84%
    07:00 +13°C° 0 mm 2 m/s 744 mmHg 82%
    08:00 +13°C° 0 mm 2 m/s 743 mmHg 80%
    09:00 +15°C° 0 mm 2 m/s 743 mmHg 74%
    10:00 +16°C° 0 mm 2 m/s 743 mmHg 68%
    11:00 +18°C° 0 mm 2 m/s 743 mmHg 62%
    12:00 +18°C° 0 mm 2 m/s 743 mmHg 61%
    13:00 +19°C° 0 mm 2 m/s 742 mmHg 60%
    14:00 +20°C° 0 mm 2 m/s 742 mmHg 58%
    15:00 +18°C° 0 mm 2 m/s 742 mmHg 63%
    16:00 +17°C° 0 mm 2 m/s 742 mmHg 68%
    17:00 +16°C° 0 mm 2 m/s 742 mmHg 73%
    18:00 +15°C° 0 mm 2 m/s 742 mmHg 77%
    19:00 +14°C° 0 mm 2 m/s 742 mmHg 80%
    20:00 +14°C° 0 mm 2 m/s 742 mmHg 84%
    21:00 +13°C° 0 mm 2 m/s 742 mmHg 87%
    22:00 +12°C° 0 mm 2 m/s 742 mmHg 90%
    23:00 +12°C° 0 mm 2 m/s 742 mmHg 93%

    Amanhã, 20 Outubro, Sábado

    Tempo Temperatura Precipitação Vento Pressão Humidade
    00:00 +10°C° 0 mm 2 m/s 742 mmHg 94%
    01:00 +10°C° 0 mm 2 m/s 742 mmHg 95%
    02:00 +9°C° 0 mm 2 m/s 743 mmHg 96%
    03:00 +9°C° 0 mm 2 m/s 743 mmHg 96%
    04:00 +8°C° 0 mm 2 m/s 743 mmHg 96%
    05:00 +8°C° 0 mm 3 m/s 743 mmHg 96%
    06:00 +8°C° 0 mm 3 m/s 743 mmHg 92%
    07:00 +8°C° 0 mm 3 m/s 743 mmHg 88%
    08:00 +9°C° 0 mm 3 m/s 744 mmHg 85%
    09:00 +10°C° 0 mm 3 m/s 744 mmHg 78%
    10:00 +11°C° 0 mm 3 m/s 744 mmHg 71%
    11:00 +12°C° 0 mm 3 m/s 744 mmHg 64%
    12:00 +12°C° 0 mm 3 m/s 744 mmHg 61%
    13:00 +12°C° 0 mm 3 m/s 744 mmHg 58%
    14:00 +12°C° 0 mm 3 m/s 744 mmHg 55%
    15:00 +11°C° 0 mm 3 m/s 744 mmHg 59%
    16:00 +10°C° 0 mm 3 m/s 744 mmHg 64%
    17:00 +8°C° 0 mm 2 m/s 744 mmHg 68%
    18:00 +8°C° 0 mm 2 m/s 744 mmHg 71%
    19:00 +7°C° 0 mm 2 m/s 745 mmHg 73%
    20:00 +7°C° 0 mm 2 m/s 745 mmHg 75%
    21:00 +6°C° 0 mm 2 m/s 745 mmHg 77%
    22:00 +6°C° 0 mm 2 m/s 745 mmHg 79%
    23:00 +5°C° 0 mm 2 m/s 745 mmHg 81%

    Depois de amanhã, 21 Outubro, Domingo

    Tempo Temperatura Precipitação Vento Pressão Humidade
    00:00 +5°C° 0 mm 2 m/s 745 mmHg 82%
    01:00 +5°C° 0 mm 2 m/s 745 mmHg 84%
    02:00 +4°C° 0 mm 2 m/s 745 mmHg 85%
    03:00 +4°C° 0 mm 2 m/s 745 mmHg 86%
    04:00 +4°C° 0 mm 2 m/s 745 mmHg 87%
    05:00 +4°C° 0 mm 2 m/s 745 mmHg 88%
    06:00 +4°C° 0 mm 2 m/s 746 mmHg 86%
    07:00 +4°C° 0 mm 3 m/s 746 mmHg 83%
    08:00 +4°C° 0 mm 3 m/s 746 mmHg 80%
    09:00 +7°C° 0 mm 3 m/s 747 mmHg 75%
    10:00 +8°C° 0 mm 3 m/s 747 mmHg 69%
    11:00 +9°C° 0 mm 3 m/s 747 mmHg 63%
    12:00 +10°C° 0 mm 3 m/s 747 mmHg 62%
    13:00 +10°C° 0 mm 3 m/s 747 mmHg 61%
    14:00 +10°C° 0 mm 3 m/s 747 mmHg 60%
    15:00 +9°C° 0 mm 3 m/s 747 mmHg 66%
    16:00 +8°C° 0 mm 3 m/s 747 mmHg 72%
    17:00 +7°C° 0 mm 2 m/s 747 mmHg 78%
    18:00 +6°C° 0 mm 2 m/s 747 mmHg 80%
    19:00 +6°C° 0 mm 2 m/s 747 mmHg 83%
    20:00 +5°C° 0 mm 2 m/s 748 mmHg 85%
    21:00 +5°C° 0 mm 2 m/s 748 mmHg 86%
    22:00 +5°C° 0 mm 2 m/s 748 mmHg 87%
    23:00 +4°C° 0 mm 2 m/s 748 mmHg 88%

    22 Outubro, Segunda-feira

    Tempo Temperatura Precipitação Vento Pressão Humidade
    00:00 +4°C° 0 mm 2 m/s 748 mmHg 88%
    01:00 +4°C° 0 mm 2 m/s 748 mmHg 89%
    02:00 +3°C° 0 mm 2 m/s 748 mmHg 90%
    03:00 +3°C° 0 mm 2 m/s 748 mmHg 90%
    04:00 +3°C° 0 mm 2 m/s 748 mmHg 91%
    05:00 +3°C° 0 mm 2 m/s 748 mmHg 92%
    06:00 +3°C° 0 mm 2 m/s 748 mmHg 89%
    07:00 +4°C° 0 mm 2 m/s 748 mmHg 86%
    08:00 +5°C° 0 mm 2 m/s 748 mmHg 83%
    09:00 +6°C° 0 mm 2 m/s 747 mmHg 77%
    10:00 +8°C° 0 mm 2 m/s 747 mmHg 70%
    11:00 +9°C° 0 mm 2 m/s 747 mmHg 64%
    12:00 +10°C° 0 mm 2 m/s 747 mmHg 63%
    13:00 +11°C° 0 mm 1 m/s 746 mmHg 62%
    14:00 +12°C° 0 mm 1 m/s 746 mmHg 60%
    15:00 +11°C° 0 mm 1 m/s 745 mmHg 66%
    16:00 +10°C° 0 mm 1 m/s 745 mmHg 72%
    17:00 +8°C° 0 mm 1 m/s 744 mmHg 78%
    18:00 +8°C° 0 mm 1 m/s 744 mmHg 81%
    19:00 +8°C° 0 mm 1 m/s 744 mmHg 84%
    20:00 +7°C° 0 mm 1 m/s 744 mmHg 86%
    21:00 +7°C° 0 mm 1 m/s 743 mmHg 88%
    22:00 +7°C° 0 mm 1 m/s 743 mmHg 89%
    23:00 +6°C° 0 mm 0 m/s 742 mmHg 91%

    23 Outubro, Terça-feira

    Tempo Temperatura Precipitação Vento Pressão Humidade
    00:00 +6°C° 0 mm 0 m/s 742 mmHg 91%
    01:00 +6°C° 0 mm 0 m/s 741 mmHg 92%
    02:00 +6°C° 0 mm 0 m/s 741 mmHg 93%
    03:00 +7°C° 0.2 mm 1 m/s 740 mmHg 92%
    04:00 +7°C° 0.2 mm 1 m/s 740 mmHg 92%
    05:00 +7°C° 0.2 mm 1 m/s 739 mmHg 92%
    06:00 +7°C° 0.6 mm 1 m/s 739 mmHg 91%
    07:00 +6°C° 0.6 mm 2 m/s 738 mmHg 90%
    08:00 +6°C° 0.6 mm 2 m/s 738 mmHg 89%
    09:00 +6°C° 0.3 mm 2 m/s 738 mmHg 84%
    10:00 +7°C° 0.3 mm 2 m/s 738 mmHg 80%
    11:00 +7°C° 0.3 mm 3 m/s 737 mmHg 75%
    12:00 +8°C° 0 mm 3 m/s 737 mmHg 70%
    13:00 +8°C° 0 mm 3 m/s 737 mmHg 64%
    14:00 +9°C° 0 mm 3 m/s 736 mmHg 59%
    15:00 +8°C° 0 mm 3 m/s 736 mmHg 63%
    16:00 +7°C° 0 mm 3 m/s 736 mmHg 68%
    17:00 +5°C° 0 mm 3 m/s 736 mmHg 73%
    18:00 +4°C° 0 mm 3 m/s 736 mmHg 75%
    19:00 +4°C° 0 mm 3 m/s 735 mmHg 78%
    20:00 +4°C° 0 mm 3 m/s 735 mmHg 80%
    21:00 +4°C° 0 mm 3 m/s 735 mmHg 81%
    22:00 +4°C° 0 mm 4 m/s 734 mmHg 82%
    23:00 +4°C° 0 mm 4 m/s 734 mmHg 83%

    24 Outubro, Quarta-feira

    Tempo Temperatura Precipitação Vento Pressão Humidade
    00:00 +4°C° 0.1 mm 4 m/s 734 mmHg 84%
    01:00 +4°C° 0.1 mm 4 m/s 733 mmHg 85%
    02:00 +4°C° 0.1 mm 4 m/s 733 mmHg 87%
    03:00 +4°C° 0.1 mm 4 m/s 732 mmHg 88%
    04:00 +3°C° 0.1 mm 4 m/s 732 mmHg 89%
    05:00 +3°C° 0.1 mm 4 m/s 732 mmHg 90%
    06:00 +3°C° 0 mm 4 m/s 731 mmHg 88%
    07:00 +2°C° 0 mm 5 m/s 730 mmHg 86%
    08:00 +2°C° 0 mm 5 m/s 730 mmHg 84%
    09:00 +3°C° 0 mm 6 m/s 730 mmHg 77%
    10:00 +4°C° 0 mm 6 m/s 729 mmHg 70%
    11:00 +5°C° 0 mm 7 m/s 729 mmHg 63%
    12:00 +5°C° 0 mm 7 m/s 728 mmHg 62%
    13:00 +5°C° 0 mm 7 m/s 727 mmHg 61%
    14:00 +6°C° 0 mm 7 m/s 726 mmHg 59%
    15:00 +5°C° 0 mm 6 m/s 726 mmHg 62%
    16:00 +5°C° 0 mm 5 m/s 725 mmHg 65%
    17:00 +5°C° 0 mm 4 m/s 725 mmHg 67%
    18:00 +5°C° 0.5 mm 5 m/s 724 mmHg 70%
    19:00 +5°C° 0.5 mm 5 m/s 724 mmHg 73%
    20:00 +5°C° 0.5 mm 5 m/s 723 mmHg 76%
    21:00 +5°C° 0.8 mm 5 m/s 722 mmHg 79%
    22:00 +5°C° 0.8 mm 5 m/s 722 mmHg 83%
    23:00 +6°C° 0.8 mm 5 m/s 721 mmHg 87%
    Mostrar mais